Weather in Kharuta

Russia / Nenets Autonomous Okrug     66°50′24″N   59°31′33″E
temp.,
°C
wind,
m/s
gust,
m/s
humid.,
%
clouds,
%
prec.,
mm/h
press.,
hPa
HPBL,
m
1 march, mon
mon100:00−17ssw5109696 0.2 1011242
03:00−16ssw6129597 0.3 1010337
06:00−16ssw71494100 0.2 1006343
09:00−13ssw91490100 0.2 1003420
12:00−11ssw111792100 0.3 1000563
15:00−10ssw111793100 1.1 996708
18:00−11ssw111893100 1.8 992787
21:00−10ssw121992100 3.2 990696
2 march, tue
tue200:00−9sw131990100 0.5 988520
03:00−11sw111989100 0.5 988371
06:00−11sw9159199 0.0 988329
09:00−10sw81293100 0.4 989368
12:00−9ssw6892100 0.3 989381
15:00−9ssw4695100 0.4 990168
18:00−12ssw349598 0.1 99031
21:00−13s239498 0.1 99120
3 march, wed
wed300:00−15sse239691 0.0 99120
03:00−14se339595 0.1 99125
06:00−14se239698 0.1 99124
09:00−12ese239499 0.2 991134
12:00−12ese3392100 0.2 991234
15:00−12e3395100 0.3 99272
18:00−13e3395100 0.1 99233
21:00−14e3396100 0.3 99258
4 march, thu
thu400:00−14e3396100 0.3 99151
03:00−15e3396100 0.7 99277
06:00−16ene3496100 0.3 99175
09:00−16ene3495100 0.5 991195
12:00−15ne349399 0.1 992248
15:00−15ne459599 0.3 993151
18:00−17nne449695 0.1 99263
21:00−18nne449797 0.2 99372
5 march, fri
fri500:00−19n449891 0.1 99345
03:00−20n349892 0.1 99335
06:00−21n349986 0.0 99425
09:00−19nnw349689 0.1 994136
12:00−17nnw349385 0.0 995232
15:00−18nw339690 0.1 99735
18:00−21nw349993 0.0 99823
21:00−21wnw339894 0.1 100020